STARLINK-11196 [DTC] (60408 NORAD) Tracking and Keplerian Element Data

This shows tracking and keplerian element data for the satellite.

Feedback or suggestion? Click here.




ElementValue
Catalog60408
NameSTARLINK-11196 [DTC]
Epoch Orbit1119
Epoch Day286.84417978
Epoch Year2024
RAAN94.4734
Inclination53.1572
Eccentricity0.0001322
Argument of Perigee139.9019
Mean Anonmoly220.2097
Mean Motion15.69715155
Decay Rate9E-06
L11 60408U 24141L 24286.84417978 .00000900 00000+0 12289-4 0 9994
L22 60408 53.1572 94.4734 0001322 139.9019 220.2097 15.69715155 11193



Live tracking and technical data element details for STARLINK-11196 [DTC] (NORAD 60408). STARLINK-11196 [DTC] can be tracked NOW for your location showing map with azimuth and elevation plus other details from your city location.







IsCatalogInMostPopularTable: catalog: 60408, numindb: 7
Update: records affected: 1



GetName: 60408 STARLINK-11196 [DTC]

Hit Count: updated at: Wed, 04 Dec 2024 19:29:03 GMT